• En España
  • Catálogo de los países
  • Para 7 días
  • Temperatura del agua
  • Satélites
  • Mapas de tiempo
  • Reproductores
  • user-avatar
    Entrar

    Situación metereológica por horas en Meppel

    Hoy, 29 Mayo, Domingo

    hora temperatura Precipitaciones Viento Presión Humedad
    00:00 +14°C° 0 mm 4 m/s 758 mmHg 97%
    01:00 +14°C° 0,1 mm 4 m/s 758 mmHg 97%
    02:00 +13°C° 0,1 mm 4 m/s 758 mmHg 97%
    03:00 +13°C° 0,1 mm 4 m/s 757 mmHg 98%
    04:00 +14°C° 0 mm 4 m/s 757 mmHg 97%
    05:00 +14°C° 0 mm 4 m/s 757 mmHg 95%
    06:00 +15°C° 0 mm 4 m/s 757 mmHg 93%
    07:00 +17°C° 0,1 mm 5 m/s 757 mmHg 89%
    08:00 +19°C° 0,1 mm 5 m/s 757 mmHg 84%
    09:00 +20°C° 0,1 mm 6 m/s 757 mmHg 79%
    10:00 +20°C° 0,1 mm 6 m/s 757 mmHg 79%
    11:00 +20°C° 0,1 mm 6 m/s 757 mmHg 79%
    12:00 +19°C° 0 mm 5 m/s 757 mmHg 80%
    13:00 +19°C° 0,1 mm 5 m/s 757 mmHg 81%
    14:00 +19°C° 0,1 mm 5 m/s 756 mmHg 83%
    15:00 +19°C° 0,1 mm 5 m/s 756 mmHg 84%
    16:00 +17°C° 0 mm 5 m/s 756 mmHg 85%
    17:00 +16°C° 0 mm 5 m/s 756 mmHg 87%
    18:00 +16°C° 0 mm 6 m/s 756 mmHg 89%
    19:00 +16°C° 0,1 mm 5 m/s 756 mmHg 89%
    20:00 +15°C° 0,1 mm 5 m/s 756 mmHg 90%
    21:00 +15°C° 0,1 mm 5 m/s 756 mmHg 91%
    22:00 +15°C° 0 mm 5 m/s 756 mmHg 91%
    23:00 +15°C° 0 mm 5 m/s 756 mmHg 91%

    Mañana, 30 Mayo, Lunes

    hora temperatura Precipitaciones Viento Presión Humedad
    00:00 +15°C° 0 mm 6 m/s 756 mmHg 91%
    01:00 +14°C° 0 mm 5 m/s 755 mmHg 93%
    02:00 +14°C° 0 mm 5 m/s 755 mmHg 94%
    03:00 +14°C° 0 mm 5 m/s 755 mmHg 95%
    04:00 +14°C° 0,1 mm 5 m/s 755 mmHg 95%
    05:00 +15°C° 0,1 mm 5 m/s 755 mmHg 94%
    06:00 +15°C° 0,1 mm 5 m/s 755 mmHg 94%
    07:00 +15°C° 0,1 mm 6 m/s 755 mmHg 93%
    08:00 +16°C° 0,1 mm 6 m/s 755 mmHg 92%
    09:00 +16°C° 0,1 mm 6 m/s 754 mmHg 91%
    10:00 +17°C° 0 mm 6 m/s 754 mmHg 90%
    11:00 +19°C° 0 mm 6 m/s 754 mmHg 88%
    12:00 +19°C° 0 mm 6 m/s 754 mmHg 87%
    13:00 +20°C° 0,1 mm 6 m/s 753 mmHg 86%
    14:00 +20°C° 0,1 mm 6 m/s 753 mmHg 86%
    15:00 +21°C° 0,1 mm 6 m/s 753 mmHg 86%
    16:00 +20°C° 0,5 mm 6 m/s 753 mmHg 87%
    17:00 +20°C° 0,5 mm 6 m/s 753 mmHg 89%
    18:00 +20°C° 0,5 mm 6 m/s 752 mmHg 91%
    19:00 +19°C° 0,7 mm 6 m/s 753 mmHg 92%
    20:00 +19°C° 0,7 mm 6 m/s 753 mmHg 94%
    21:00 +19°C° 0,7 mm 5 m/s 753 mmHg 96%
    22:00 +17°C° 0,5 mm 5 m/s 753 mmHg 96%
    23:00 +17°C° 0,5 mm 5 m/s 753 mmHg 96%

    Pasado mañana, 31 Mayo, Martes

    hora temperatura Precipitaciones Viento Presión Humedad
    00:00 +17°C° 0,5 mm 4 m/s 753 mmHg 97%
    01:00 +15°C° 0,1 mm 4 m/s 753 mmHg 96%
    02:00 +15°C° 0,1 mm 4 m/s 753 mmHg 96%
    03:00 +14°C° 0,1 mm 4 m/s 753 mmHg 96%
    04:00 +14°C° 0 mm 4 m/s 753 mmHg 94%
    05:00 +15°C° 0 mm 4 m/s 754 mmHg 92%
    06:00 +16°C° 0 mm 5 m/s 754 mmHg 89%
    07:00 +17°C° 0 mm 5 m/s 754 mmHg 85%
    08:00 +19°C° 0 mm 5 m/s 755 mmHg 81%
    09:00 +20°C° 0 mm 5 m/s 755 mmHg 77%
    10:00 +20°C° 0 mm 5 m/s 756 mmHg 76%
    11:00 +21°C° 0 mm 5 m/s 756 mmHg 75%
    12:00 +21°C° 0 mm 4 m/s 756 mmHg 75%
    13:00 +21°C° 0 mm 4 m/s 756 mmHg 74%
    14:00 +22°C° 0 mm 4 m/s 757 mmHg 73%
    15:00 +22°C° 0 mm 3 m/s 757 mmHg 72%
    16:00 +22°C° 0 mm 3 m/s 757 mmHg 74%
    17:00 +23°C° 0 mm 2 m/s 757 mmHg 76%
    18:00 +23°C° 0 mm 2 m/s 758 mmHg 78%
    19:00 +20°C° 0 mm 2 m/s 758 mmHg 82%
    20:00 +19°C° 0 mm 2 m/s 759 mmHg 85%
    21:00 +17°C° 0 mm 2 m/s 759 mmHg 89%
    22:00 +17°C° 0 mm 2 m/s 759 mmHg 90%
    23:00 +16°C° 0 mm 2 m/s 759 mmHg 91%

    1 Junio, Miércoles

    hora temperatura Precipitaciones Viento Presión Humedad
    00:00 +16°C° 0 mm 2 m/s 759 mmHg 92%
    01:00 +16°C° 0,1 mm 2 m/s 759 mmHg 93%
    02:00 +16°C° 0,1 mm 2 m/s 760 mmHg 93%
    03:00 +16°C° 0,1 mm 2 m/s 760 mmHg 94%
    04:00 +17°C° 0,2 mm 2 m/s 760 mmHg 93%
    05:00 +18°C° 0,2 mm 2 m/s 760 mmHg 92%
    06:00 +18°C° 0,2 mm 2 m/s 760 mmHg 92%
    07:00 +19°C° 0,1 mm 2 m/s 760 mmHg 88%
    08:00 +21°C° 0,1 mm 2 m/s 760 mmHg 85%
    09:00 +23°C° 0,1 mm 2 m/s 760 mmHg 81%
    10:00 +24°C° 0,2 mm 2 m/s 760 mmHg 79%
    11:00 +24°C° 0,2 mm 2 m/s 760 mmHg 76%
    12:00 +25°C° 0,2 mm 2 m/s 760 mmHg 74%
    13:00 +25°C° 0,7 mm 2 m/s 760 mmHg 74%
    14:00 +25°C° 0,7 mm 2 m/s 760 mmHg 75%
    15:00 +25°C° 0,7 mm 2 m/s 760 mmHg 76%
    16:00 +24°C° 0,8 mm 2 m/s 760 mmHg 81%
    17:00 +23°C° 0,8 mm 2 m/s 760 mmHg 86%
    18:00 +21°C° 0,8 mm 2 m/s 760 mmHg 91%
    19:00 +20°C° 0,1 mm 2 m/s 760 mmHg 93%
    20:00 +20°C° 0,1 mm 2 m/s 760 mmHg 94%
    21:00 +19°C° 0,1 mm 2 m/s 760 mmHg 96%
    22:00 +18°C° 0,3 mm 2 m/s 760 mmHg 97%
    23:00 +18°C° 0,3 mm 2 m/s 760 mmHg 97%

    2 Junio, Jueves

    hora temperatura Precipitaciones Viento Presión Humedad
    00:00 +18°C° 0,3 mm 2 m/s 760 mmHg 97%
    01:00 +17°C° 0,2 mm 2 m/s 760 mmHg 97%
    02:00 +17°C° 0,2 mm 2 m/s 760 mmHg 98%
    03:00 +18°C° 0,2 mm 1 m/s 760 mmHg 98%
    04:00 +19°C° 0 mm 1 m/s 760 mmHg 96%
    05:00 +19°C° 0 mm 1 m/s 760 mmHg 95%
    06:00 +20°C° 0 mm 1 m/s 760 mmHg 94%
    07:00 +21°C° 0 mm 1 m/s 760 mmHg 92%
    08:00 +21°C° 0 mm 1 m/s 760 mmHg 90%
    09:00 +22°C° 0 mm 1 m/s 761 mmHg 88%
    10:00 +23°C° 0,1 mm 1 m/s 761 mmHg 85%
    11:00 +23°C° 0,1 mm 1 m/s 761 mmHg 82%
    12:00 +24°C° 0,1 mm 1 m/s 761 mmHg 80%
    13:00 +24°C° 0,2 mm 1 m/s 761 mmHg 78%
    14:00 +25°C° 0,2 mm 1 m/s 761 mmHg 77%
    15:00 +25°C° 0,2 mm 1 m/s 761 mmHg 75%
    16:00 +25°C° 0,2 mm 1 m/s 761 mmHg 78%
    17:00 +24°C° 0,2 mm 1 m/s 761 mmHg 81%
    18:00 +24°C° 0,2 mm 2 m/s 761 mmHg 84%
    19:00 +23°C° 0,1 mm 2 m/s 761 mmHg 87%
    20:00 +21°C° 0,1 mm 2 m/s 761 mmHg 90%
    21:00 +20°C° 0,1 mm 3 m/s 761 mmHg 92%
    22:00 +20°C° 0 mm 3 m/s 761 mmHg 93%
    23:00 +19°C° 0 mm 3 m/s 761 mmHg 94%

    3 Junio, Viernes

    hora temperatura Precipitaciones Viento Presión Humedad
    00:00 +19°C° 0 mm 3 m/s 761 mmHg 95%
    01:00 +18°C° 0 mm 3 m/s 761 mmHg 95%
    02:00 +18°C° 0 mm 3 m/s 761 mmHg 96%
    03:00 +18°C° 0 mm 3 m/s 761 mmHg 96%
    04:00 +19°C° 0 mm 3 m/s 761 mmHg 94%
    05:00 +19°C° 0 mm 3 m/s 761 mmHg 92%
    06:00 +20°C° 0 mm 3 m/s 761 mmHg 89%
    07:00 +22°C° 0,1 mm 4 m/s 761 mmHg 84%
    08:00 +23°C° 0,1 mm 4 m/s 761 mmHg 79%
    09:00 +26°C° 0,1 mm 4 m/s 761 mmHg 73%
    10:00 +26°C° 0 mm 4 m/s 761 mmHg 69%
    11:00 +27°C° 0 mm 4 m/s 761 mmHg 64%
    12:00 +28°C° 0 mm 4 m/s 761 mmHg 59%
    13:00 +28°C° 0 mm 4 m/s 761 mmHg 60%
    14:00 +28°C° 0 mm 5 m/s 760 mmHg 60%
    15:00 +28°C° 0 mm 5 m/s 760 mmHg 60%
    16:00 +27°C° 0,1 mm 4 m/s 760 mmHg 66%
    17:00 +26°C° 0,1 mm 4 m/s 760 mmHg 72%
    18:00 +25°C° 0,1 mm 4 m/s 760 mmHg 78%
    19:00 +23°C° 0 mm 4 m/s 760 mmHg 82%
    20:00 +21°C° 0 mm 4 m/s 761 mmHg 87%
    21:00 +19°C° 0 mm 4 m/s 761 mmHg 91%
    22:00 +19°C° 0 mm 4 m/s 761 mmHg 92%
    23:00 +18°C° 0 mm 4 m/s 761 mmHg 93%
    Mostrar más